FW3981 Manvel TX US current weather conditions

sailwx.info

Wind from 325 at 7 knots gusting 13

Air temperature 22.2° C
Dewpoint 7.2° C

Last reported at 2019-Dec-06 20:00 UTC.
Time now 2019-Dec-06 21:06 UTC

Location: N 29°31' W 095°23'.
View on Google Maps.

See reports from other nearby stations

  
Tides and Currents Weather Stations Pressure Air Temp Water Temp Dewpoint Dewpoint Depression Visibility Wind Speed Wind Dir Waves Ship Positions
date/time (UTC)wind fromknots sea level pressurealtimeterstation pressurevisibilityair tempwater tempwave heightnotes
2019-Dec-06 20:00 325 7 gusting 13 22.2
2019-Dec-06 19:45 284 5 gusting 16 22.2
2019-Dec-06 19:31 302 9 gusting 14 22.2
2019-Dec-06 19:16 322 6 gusting 13 21.7
2019-Dec-06 19:01 326 6 gusting 13 21.7
2019-Dec-06 18:46 310 7 gusting 13 21.7
2019-Dec-06 18:32 321 5 gusting 13 22.2
2019-Dec-06 18:15 332 6 gusting 12 21.7
2019-Dec-06 18:01 302 5 gusting 11 21.7
2019-Dec-06 17:47 300 3 gusting 8 21.7
2019-Dec-06 17:45 307 4 gusting 8 21.7
2019-Dec-06 17:31 309 4 gusting 13 21.7
2019-Dec-06 17:17 299 6 gusting 13 21.1
2019-Dec-06 17:01 328 6 gusting 10 21.7
2019-Dec-06 16:46 020 6 gusting 13 21.7
2019-Dec-06 16:31 327 6 gusting 9 21.7
2019-Dec-06 16:16 337 6 gusting 13 21.7
2019-Dec-06 16:01 317 4 gusting 10 21.1
2019-Dec-06 15:46 302 5 gusting 10 20.6
2019-Dec-06 15:31 300 6 gusting 11 20.6
2019-Dec-06 15:15 285 4 gusting 9 20.0
2019-Dec-06 15:00 289 2 gusting 6 19.4
2019-Dec-06 14:45 295 2 gusting 6 18.9
2019-Dec-06 14:31 286 2 gusting 7 18.9
2019-Dec-06 14:15 321 4 gusting 7 18.9
2019-Dec-06 14:00 217 2 gusting 5 18.9
2019-Dec-06 13:45 308 1 gusting 6 18.9
2019-Dec-06 13:30 236 3 gusting 7 18.9
2019-Dec-06 13:16 262 1 gusting 6 18.9
2019-Dec-06 13:00 277 18.3
2019-Dec-06 12:45 282 1 gusting 3 17.8
2019-Dec-06 12:31 248 17.2
2019-Dec-06 12:16 248 16.7
2019-Dec-06 12:00 237 16.1
2019-Dec-06 11:45 234 15.6
2019-Dec-06 11:31 160 15.6
2019-Dec-06 11:16 165 16.1
2019-Dec-06 11:00 145 0 gusting 1 16.1
2019-Dec-06 10:45 150 16.1
2019-Dec-06 10:31 140 16.1
2019-Dec-06 10:16 214 16.1
2019-Dec-06 10:01 169 16.1
2019-Dec-06 09:45 166 0 gusting 2 16.1
2019-Dec-06 09:30 156 16.1
2019-Dec-06 09:15 209 16.1
2019-Dec-06 09:02 176 0 gusting 2 16.1
2019-Dec-06 08:46 163 1 gusting 2 15.6
2019-Dec-06 08:31 172 14.4
2019-Dec-06 08:16 192 14.4
2019-Dec-06 08:00 193 15.0
2019-Dec-06 07:46 149 15.6
2019-Dec-06 07:30 158 0 gusting 1 15.6
2019-Dec-06 07:15 143 0 gusting 1 15.6
2019-Dec-06 07:01 161 0 gusting 1 15.6
2019-Dec-06 06:45 143 15.6
2019-Dec-06 06:31 153 0 gusting 0 15.6
2019-Dec-06 06:15 153 0 gusting 0 15.6
2019-Dec-06 06:01 152 16.1
2019-Dec-06 05:46 160 1 gusting 1 16.1
2019-Dec-06 05:30 137 0 gusting 2 16.1
2019-Dec-06 05:15 151 0 gusting 2 16.1
2019-Dec-06 05:03 136 16.1
2019-Dec-06 04:46 151 1 gusting 1 16.1
2019-Dec-06 04:31 158 0 gusting 2 16.1
2019-Dec-06 04:15 151 1 gusting 2 16.1
2019-Dec-06 04:00 153 1 gusting 1 16.1
2019-Dec-06 03:45 162 1 gusting 2 16.7
2019-Dec-06 02:17 150 0 gusting 1 17.2
2019-Dec-06 02:01 075 17.8
2019-Dec-06 01:46 130 17.8
2019-Dec-06 01:30 137 17.8
2019-Dec-06 01:16 087 0 gusting 2 17.8
2019-Dec-06 01:01 105 0 gusting 2 18.3
2019-Dec-06 00:46 109 0 gusting 3 18.3
2019-Dec-06 00:31 137 0 gusting 2 18.3
2019-Dec-06 00:16 140 2 gusting 4 18.9
2019-Dec-06 00:01 143 2 gusting 5 18.9
2019-Dec-05 23:46 095 2 gusting 5 19.4
2019-Dec-05 23:30 126 2 gusting 4 19.4
2019-Dec-05 23:16 108 0 gusting 5 20.0
2019-Dec-05 23:03 109 1 gusting 6 20.6
2019-Dec-05 22:46 115 2 gusting 6 20.6
2019-Dec-05 22:31 158 2 gusting 6 21.1
2019-Dec-05 22:16 147 4 gusting 8 21.7
2019-Dec-05 22:01 162 4 gusting 10 22.2
2019-Dec-05 21:47 168 6 gusting 12 21.7
2019-Dec-05 21:31 136 6 gusting 11 22.2
2019-Dec-05 21:15 146 6 gusting 10 22.2
2019-Dec-05 21:00 162 9 gusting 13 22.8
2019-Dec-05 20:46 160 8 gusting 13 22.2
2019-Dec-05 20:31 176 8 gusting 13 22.8
2019-Dec-05 20:15 143 8 gusting 11 22.8
2019-Dec-05 20:00 155 6 gusting 10 22.8
2019-Dec-05 19:45 160 7 gusting 12 23.3
2019-Dec-05 19:30 153 6 gusting 12 23.3
2019-Dec-05 19:16 139 8 gusting 12 23.3
2019-Dec-05 19:02 191 7 gusting 12 23.9
2019-Dec-05 18:46 159 5 gusting 12 23.9
2019-Dec-05 18:31 155 7 gusting 12 23.9
2019-Dec-05 18:16 153 5 gusting 11 23.3
2019-Dec-05 17:46 165 6 gusting 10 22.8
2019-Dec-05 17:30 151 3 gusting 12 22.8
2019-Dec-05 17:17 175 7 gusting 12 22.8
2019-Dec-05 17:01 155 4 gusting 7 22.8
2019-Dec-05 16:46 103 2 gusting 6 22.2
2019-Dec-05 16:31 112 3 gusting 5 21.7
2019-Dec-05 16:15 098 3 gusting 5 20.6
2019-Dec-05 16:00 106 2 gusting 6 20.0
2019-Dec-05 15:46 105 1 gusting 5 19.4
2019-Dec-05 15:31 121 1 gusting 3 18.9
2019-Dec-05 15:16 103 0 gusting 3 17.8
2019-Dec-05 15:03 115 1 gusting 3 16.7
2019-Dec-05 14:47 106 0 gusting 2 15.6
2019-Dec-05 14:17 082 1 gusting 3 13.9
2019-Dec-05 14:00 102 0 gusting 4 13.9
2019-Dec-05 13:47 088 0 gusting 4 13.3
2019-Dec-05 13:32 105 12.2
2019-Dec-05 13:18 129 12.2
2019-Dec-05 13:00 108 12.2
2019-Dec-05 12:45 098 11.7
2019-Dec-05 12:30 153 10.6
2019-Dec-05 12:15 152 10.6
2019-Dec-05 12:01 152 10.0
2019-Dec-05 11:46 152 10.0
2019-Dec-05 11:31 153 9.4
2019-Dec-05 11:15 153 9.4
2019-Dec-05 11:01 153 9.4
2019-Dec-05 10:46 153 8.9
2019-Dec-05 10:31 153 8.9
2019-Dec-05 10:16 153 8.3
2019-Dec-05 10:01 153 8.9
2019-Dec-05 09:46 153 8.3
2019-Dec-05 09:30 153 8.9
2019-Dec-05 09:15 153 8.9
2019-Dec-05 09:00 153 8.9
2019-Dec-05 08:45 153 8.3
2019-Dec-05 08:16 153 8.3
2019-Dec-05 08:02 153 8.3
2019-Dec-05 07:46 153 8.3
2019-Dec-05 07:30 153 8.3
2019-Dec-05 07:15 153 8.3
2019-Dec-05 07:00 153 8.3
2019-Dec-05 06:46 153 8.3
2019-Dec-05 06:45 153 8.3
2019-Dec-05 06:32 153 8.3
2019-Dec-05 06:16 153 8.9
2019-Dec-05 06:02 153 8.9
2019-Dec-05 05:45 153 9.4
2019-Dec-05 05:31 153 10.0
2019-Dec-05 05:15 153 10.6
2019-Dec-05 05:02 153 11.1
2019-Dec-05 04:46 153 11.1
2019-Dec-05 04:31 153 11.1
2019-Dec-05 04:16 153 10.6
2019-Dec-05 04:01 153 10.6
2019-Dec-05 03:46 153 11.1
2019-Dec-05 03:31 153 10.6
2019-Dec-05 03:15 153 11.7
2019-Dec-05 03:02 153 12.2
2019-Dec-05 02:46 013 11.7
2019-Dec-05 02:32 013 12.2
2019-Dec-05 02:15 013 12.8
2019-Dec-05 02:01 013 12.8
2019-Dec-05 01:45 013 12.8
2019-Dec-05 01:16 013 12.8
2019-Dec-05 01:01 013 13.9
2019-Dec-05 00:46 013 15.0
2019-Dec-05 00:30 013 15.0
2019-Dec-05 00:16 345 15.6
2019-Dec-05 00:00 345 15.6
2019-Dec-04 23:45 345 16.1
2019-Dec-04 23:31 345 16.7
2019-Dec-04 23:16 345 17.2
2019-Dec-04 23:01 345 18.3
2019-Dec-04 22:45 345 20.0
2019-Dec-04 22:31 344 21.1
2019-Dec-04 22:15 038 21.7
2019-Dec-04 22:00 039 0 gusting 2 22.2
2019-Dec-04 21:45 017 0 gusting 4 22.2
2019-Dec-04 21:30 038 1 gusting 6 22.8
2019-Dec-04 21:15 042 2 gusting 4 22.8
2019-Dec-04 21:00 332 22.8